Robstown, TX

1:07 PM CDT on March 29, 2017 (GMT -0500)
Robstown

Weather History for KRBO - December, 2012

Change the Weather History Date:

Monday, December 31, 2012

  Actual Average (KCRP) Record (KCRP)
Temperature  
Mean Temperature 72 °F -  
Max Temperature 79 °F 65 °F 84 °F (2011)
Min Temperature 64 °F 44 °F 28 °F (1983)
Cooling Degree Days 6    
Growing Degree Days 22 (Base 50)    
Moisture  
Dew Point 64 °F    
Average Humidity 79    
Maximum Humidity 92    
Minimum Humidity 57    
Precipitation  
Precipitation 0.02 in - - ()
Sea Level Pressure  
Sea Level Pressure 30.00 in    
Wind  
Wind Speed 9 mph (SSE)    
Max Wind Speed 23 mph    
Max Gust Speed 32 mph    
Visibility 10 miles    
Events Rain    
Averages and records for this station are not official NWS values.
T = Trace of Precipitation, MM = Missing Value Source: NWS Daily Summary

Daily Weather History Graph

Daily Weather History Graph

Search for Another Location

Airport or City:

Trip Planner

Search our weather history database for the weather conditions in past years. The results will help you decide how hot, cold, wet, or windy it might be!

Date:

Astronomy

Dec. 31, 2012 Rise Set
Actual Time 7:21 AM CST 5:46 PM CST
Civil Twilight 6:55 AM CST 6:12 PM CST
Nautical Twilight 6:26 AM CST 6:41 PM CST
Astronomical Twilight 5:58 AM CST 7:10 PM CST
Moon 8:59 PM CST (12/31) 9:20 AM CST (12/31)
Length of Visible Light 11h 16m
Length of Day
10h 25m
Waning Gibbous, 90% of the Moon is Illuminated
Dec 31
Waning Gibbous
Jan 4
Last Quarter
Jan 11
New
Jan 18
First Quarter
Jan 26
Full

Hourly Weather History & Observations

Time (CST) Temp. Dew Point Humidity Pressure Visibility Wind Dir Wind Speed Gust Speed Precip Events Conditions
12:15 AM 64.8 °F 59.7 °F 84% 30.14 in 10.0 mi SE 5.8 mph - N/A   Overcast
12:35 AM 64.8 °F 59.5 °F 83% 30.13 in 10.0 mi SE 5.8 mph - N/A   Overcast
12:55 AM 64.6 °F 59.5 °F 84% 30.12 in 10.0 mi SE 5.8 mph - N/A   Overcast
1:15 AM 64.4 °F 59.9 °F 85% 30.11 in 10.0 mi ESE 4.6 mph - N/A   Overcast
1:35 AM 64.4 °F 60.1 °F 86% 30.11 in 10.0 mi SE 4.6 mph - N/A   Overcast
1:55 AM 64.4 °F 59.9 °F 85% 30.10 in 10.0 mi ESE 4.6 mph - N/A   Overcast
2:15 AM 64.9 °F 59.9 °F 84% 30.10 in 10.0 mi ESE 5.8 mph - N/A   Overcast
2:35 AM 64.9 °F 59.9 °F 84% 30.09 in 10.0 mi ESE 4.6 mph - N/A   Overcast
2:55 AM 64.8 °F 59.7 °F 84% 30.09 in 10.0 mi SSE 4.6 mph - N/A   Overcast
3:15 AM 66.2 °F 60.3 °F 81% 30.09 in 10.0 mi SSE 6.9 mph - N/A   Overcast
3:35 AM 66.6 °F 60.4 °F 81% 30.08 in 10.0 mi SSE 8.1 mph - N/A   Overcast
3:55 AM 67.1 °F 60.4 °F 79% 30.07 in 10.0 mi SSE 5.8 mph - N/A   Overcast
4:15 AM 67.3 °F 60.8 °F 80% 30.07 in 10.0 mi SSE 6.9 mph - N/A   Overcast
4:35 AM 66.7 °F 60.8 °F 81% 30.06 in 10.0 mi SE 6.9 mph - N/A   Overcast
4:55 AM 67.1 °F 60.8 °F 80% 30.06 in 10.0 mi SSE 5.8 mph - N/A   Overcast
5:15 AM 67.3 °F 61.2 °F 81% 30.04 in 10.0 mi SE 10.4 mph - N/A   Overcast
5:35 AM 67.5 °F 61.9 °F 82% 30.03 in 10.0 mi SSE 11.5 mph - N/A   Overcast
5:55 AM 67.6 °F 62.1 °F 82% 30.04 in 10.0 mi SSE 8.1 mph - N/A   Overcast
6:15 AM 68.0 °F 62.6 °F 83% 30.04 in 10.0 mi SSE 8.1 mph - N/A   Overcast
6:55 AM 67.1 °F 63.3 °F 88% 30.04 in 10.0 mi SSE 8.1 mph - N/A   Overcast
7:15 AM 66.7 °F 63.7 °F 90% 30.04 in 7.0 mi South 9.2 mph - N/A   Overcast
7:35 AM 66.6 °F 63.7 °F 90% 30.04 in 7.0 mi SSE 6.9 mph - N/A   Overcast
7:55 AM 66.6 °F 64.0 °F 92% 30.04 in 5.0 mi SE 6.9 mph - N/A   Overcast
8:15 AM 67.1 °F 64.4 °F 91% 30.03 in 5.0 mi SSE 10.4 mph - N/A   Overcast
8:35 AM 67.5 °F 64.6 °F 90% 30.05 in 7.0 mi SSE 9.2 mph - N/A   Overcast
8:55 AM 68.0 °F 64.6 °F 89% 30.04 in 7.0 mi SSE 10.4 mph - N/A   Overcast
9:15 AM 68.2 °F 64.6 °F 88% 30.05 in 7.0 mi South 9.2 mph - N/A   Overcast
9:35 AM 68.5 °F 64.6 °F 87% 30.05 in 7.0 mi South 6.9 mph - N/A   Overcast
9:55 AM 68.9 °F 64.6 °F 86% 30.05 in 7.0 mi SSE 6.9 mph - N/A   Overcast
10:15 AM 70.0 °F 64.8 °F 83% 30.05 in 10.0 mi South 10.4 mph - N/A   Overcast
10:35 AM 71.2 °F 64.9 °F 80% 30.04 in 10.0 mi South 11.5 mph - N/A   Overcast
10:55 AM 73.4 °F 65.7 °F 77% 30.02 in 10.0 mi South 18.4 mph - N/A   Mostly Cloudy
11:15 AM 74.3 °F 65.7 °F 74% 30.04 in 10.0 mi South 15.0 mph - N/A   Mostly Cloudy
11:35 AM 74.7 °F 65.5 °F 73% 30.02 in 10.0 mi South 16.1 mph - N/A   Overcast
11:55 AM 75.2 °F 65.3 °F 71% 30.00 in 10.0 mi South 19.6 mph 23.0 mph N/A   Mostly Cloudy
12:15 PM 76.1 °F 64.8 °F 68% 29.98 in 10.0 mi South 23.0 mph - N/A   Mostly Cloudy
12:35 PM 78.1 °F 64.8 °F 63% 29.97 in 10.0 mi South 19.6 mph 27.6 mph N/A   Mostly Cloudy
12:55 PM 78.1 °F 63.9 °F 61% 29.97 in 10.0 mi South 20.7 mph 32.2 mph N/A   Scattered Clouds
1:15 PM 78.1 °F 63.7 °F 61% 29.95 in 10.0 mi South 18.4 mph 28.8 mph N/A   Mostly Cloudy
1:35 PM 78.6 °F 63.7 °F 60% 29.94 in 10.0 mi South 17.3 mph - N/A   Mostly Cloudy
1:55 PM 78.8 °F 63.5 °F 59% 29.93 in 10.0 mi South 19.6 mph - N/A   Mostly Cloudy
2:15 PM 79.9 °F 63.5 °F 57% 29.92 in 10.0 mi South 19.6 mph 25.3 mph N/A   Scattered Clouds
2:35 PM 79.0 °F 63.7 °F 59% 29.91 in 10.0 mi SSE 15.0 mph - N/A   Scattered Clouds
2:55 PM 78.4 °F 64.0 °F 61% 29.91 in 10.0 mi SSE 12.7 mph 20.7 mph N/A   Scattered Clouds
3:15 PM 77.2 °F 64.8 °F 65% 29.91 in 10.0 mi SSE 13.8 mph - N/A   Mostly Cloudy
3:35 PM 77.2 °F 64.8 °F 65% 29.90 in 10.0 mi SE 17.3 mph - N/A   Scattered Clouds
3:55 PM 76.8 °F 65.3 °F 67% 29.88 in 10.0 mi SE 16.1 mph - N/A   Clear
4:15 PM 76.1 °F 65.5 °F 70% 29.91 in 10.0 mi SSE 15.0 mph - N/A   Clear
4:35 PM 76.1 °F 65.7 °F 70% 29.89 in 10.0 mi SSE 16.1 mph 20.7 mph N/A   Clear
4:55 PM 75.7 °F 65.3 °F 70% 29.90 in 10.0 mi SSE 11.5 mph 16.1 mph N/A   Clear
5:15 PM 75.4 °F 64.6 °F 69% 29.91 in 10.0 mi South 6.9 mph - N/A   Clear
5:35 PM 74.8 °F 64.4 °F 70% 29.90 in 10.0 mi SSE 8.1 mph - N/A   Scattered Clouds
6:15 PM 73.8 °F 63.9 °F 71% 29.92 in 10.0 mi SSE 4.6 mph - N/A   Mostly Cloudy
6:35 PM 73.8 °F 63.9 °F 71% 29.92 in 10.0 mi SE 9.2 mph - N/A   Mostly Cloudy
6:55 PM 73.4 °F 64.4 °F 73% 29.93 in 10.0 mi SSE 9.2 mph - N/A Rain Light Rain
7:15 PM 72.5 °F 65.1 °F 78% 29.94 in 10.0 mi SSE 11.5 mph - N/A   Light Drizzle
7:35 PM 71.6 °F 65.8 °F 82% 29.95 in 10.0 mi SSE 8.1 mph - N/A Rain Rain
7:55 PM 70.5 °F 66.4 °F 87% 29.94 in 10.0 mi SE 6.9 mph - N/A Rain Rain
8:15 PM 70.2 °F 66.4 °F 88% 29.95 in 10.0 mi SSE 8.1 mph - 0.01 in Rain Rain
8:35 PM 69.8 °F 66.4 °F 89% 29.96 in 10.0 mi SSE 6.9 mph - 0.02 in   Drizzle
8:55 PM 69.8 °F 66.6 °F 89% 29.94 in 10.0 mi SE 6.9 mph - N/A   Light Drizzle
9:15 PM 69.8 °F 66.4 °F 89% 29.95 in 10.0 mi SE 6.9 mph - N/A   Light Drizzle
9:35 PM 69.4 °F 66.2 °F 89% 29.96 in 10.0 mi SSE 6.9 mph - N/A   Clear
9:55 PM 69.4 °F 66.0 °F 89% 29.95 in 10.0 mi SE 8.1 mph - N/A   Clear
10:15 PM 69.1 °F 65.7 °F 89% 29.94 in 10.0 mi SE 10.4 mph - N/A   Clear
10:35 PM 69.1 °F 65.7 °F 89% 29.92 in 10.0 mi SE 12.7 mph - N/A   Clear
10:55 PM 69.3 °F 65.8 °F 89% 29.93 in 10.0 mi SE 13.8 mph - N/A   Clear
11:15 PM 69.4 °F 66.2 °F 89% 29.93 in 10.0 mi SE 12.7 mph - N/A   Scattered Clouds
11:35 PM 69.3 °F 66.2 °F 90% 29.93 in 10.0 mi SSE 12.7 mph - N/A   Mostly Cloudy